Weather in Pidlisne

Ukraine / Kirovohrad Region     48°47′02″N   32°15′11″E
temp.,
°C
wind,
m/s
gust,
m/s
humid.,
%
clouds,
%
prec.,
mm/h
press.,
hPa
HPBL,
m
21 april, wed
wed2100:00+6wnw41087100 0.0 1008240
03:00+5wnw379722 0.0 1010173
06:00+4w37945 0.0 1011151
09:00+9wsw46685 0.0 1013654
12:00+13wsw675390 0.3 10131816
15:00+12w675687 0.9 10141288
18:00+12wnw465534 0.9 10141215
21:00+8wsw227487 0.9 101623
22 april, thu
thu2200:00+7ssw33755 0.0 101731
03:00+6ssw35845 0.0 101870
06:00+6ssw34855 0.0 101856
09:00+12ssw46645 0.0 1019397
12:00+16ssw564417 0.0 10192126
15:00+17ssw5738100 0.0 10182501
18:00+16s675145 0.0 10171429
21:00+11s49725 0.1 1018176
23 april, fri
fri2300:00+9s4118185 0.0 1018256
03:00+7s5108987 0.1 1017222
06:00+8s5128445 0.1 1017337
09:00+12ssw7117380 0.5 1016607
12:00+16ssw81059100 0.9 10141466
15:00+13ssw5766100 3.4 10141018
18:00+9nnw3694100 16.8 1013465
21:00+5nnw6893100 26.1 1016621
24 april, sat
sat2400:00+5wnw488644 0.4 1016646
03:00+3w410941 0.4 1016298
06:00+2w48900 0.0 1017195
09:00+6w686782 0.0 1017812
12:00+7w8106252 0.6 10181578
15:00+9wsw7860100 1.0 10181438
18:00+8wnw796588 1.1 10181272
21:00+4w36790 1.4 1019131
25 april, sun
sun2500:00+3w410800 0.0 1020225
03:00+2w38840 0.0 1020168
06:00+1w36840 0.0 1020126
09:00+6wsw46585 0.0 1020600
12:00+9w694899 0.0 10192073
15:00+8w7871100 0.4 10191110
18:00+8wnw4669100 0.4 10181011
21:00+5wnw228581 0.5 101821